SCP
0 0 0 0 0 0 0 0 0 0 0 0 0 0 0 0 0 0 0 0 0 0 0 0 0 0 0 0 0 0 0 0 0 0 0 0 0 0 0 0 0 0 0
0 0 0 0 0 0 0 0 0 0 0 0 0 0 0 0 0 0 0 0 0 0 0 0 0 0 0 0 0 0 0 0 0 0 0 0 0 0 0 0 0 0 0
0 0 0 0 0 0 0 0 0 0 0 0 0 0 0 0 0 0 0 0 0 0 0 0 0 0 0 0 0 0 0 0 0 0 0 0 0 0 0 0 0 0 0
0 0 0 0 0 0 0 0 0 0 0 0 0 0 0 0 0 0 0 0 0 0 0 0 0 0 0 0 0 0 0 0 0 0 0 0 0 0 0 0 0 0 0
0 0 0 0 0 0 0 0 0 0 0 0 0 0 0 0 0 0 0 0 0 0 0 0 0 0 0 0 0 0 0 0 0 0 0 0 0 0 0 0 0 0 0
0 0 0 0 0 0 0 0 0 0 0 0 0 0 0 0 0 0 0 0 0 0 0 0 0 0 0 0 0 0 0 0 0 0 0 0 0 0 0 0 0 0 0
0 0 0 0 0 0 0 0 0 0 0 0 0 0 0 0 0 0 0 0 0 0 0 0 0 0 0 0 0 0 0 0 0 0 0 0 0 0 0 0 0 0 0
0 0 0 0 0 0 0 0 0 0 0 0 0 0 0 0 0 0 0 0 0 0 0 0 0 0 0 0 0 0 0 0 0 0 0 0 0 0 0 0 0 0 0
0 0 0 0 0 0 0 0 0 0 0 0 0 0 0 0 0 0 0 0 0 0 0 0 0 0 0 0 0 0 0 0 0 0 0 0 0 0 0 0 0 0 0
0 0 0 0 0 0 0 0 0 0 0 0 0 0 0 0 0 0 0 0 0 0 0 0 0 0 0 0 0 0 0 0 0 0 0 0 0 0 0 0 0 0 0
0 0 0 0 0 0 0 0 0 0 0 0 0 0 0 0 0 0 0 0 0 0 0 0 0 0 0 0 0 0 0 0 0 0 0 0 0 0 0 0 0 0 0
0 0 0 0 0 0 0 0 0 0 0 0 0 0 0 0 0 0 0 0 0 0 0 0 0 0 0 0 0 0 0 0 0 0 0 0 0 0 0 0 0 0 0
0 0 0 0 0 0 0 0 0 0 0 0 0 0 0 0 0 0 0 0 0 0 0 0 0 0 0 0 0 0 0 0 0 0 0 0 0 0 0 0 0 0 0
0 0 0 0 0 0 0 0 0 0 0 0 0 0 0 0 0 0 0 0 0 0 0 0 0 0 0 0 0 0 0 0 0 0 0 0 0 0 0 0 0 0 0
0 0 0 0 0 0 0 0 0 0 0 0 0 0 0 0 0 0 0 0 0 0 0 0 0 0 0 0 0 0 0 0 0 0 0 0 0 0 0 0 0 0 0
0 0 0 0 0 0 0 0 0 0 0 0 0 0 0 0 0 0 0 0 0 0 0 0 0 0 0 0 0 0 0 0 0 0 0 0 0 0 0 0 0 0 0
0 0 0 0 0 0 0 0 0 0 0 0 0 0 0 0 0 0 0 0 0 0 0 0 0 0 0 0 0 0 0 0 0 0 0 0 0 0 0 0 0 0 0
0 0 0 0 0 0 0 0 0 0 0 0 0 0 0 0 0 0 0 0 0 0 0 0 0 0 0 0 0 0 0 0 0 0 0 0 0 0 0 0 0 0 0
0 0 0 0 0 0 0 0 0 0 0 0 0 0 0 0 0 0 0 0 0 0 0 0 0 0 0 0 0 0 0 0 0 0 0 0 0 0 0 0 0 0 0
0 0 0 0 0 0 0 0 0 0 0 0 0 0 0 0 0 0 0 0 0 0 0 0 0 0 0 0 0 0 0 0 0 0 0 0 0 0 0 0 0 0 0
0 0 0 0 0 0 0 0 0 0 0 0 0 0 0 0 0 0 0 0 0 0 0 0 0 0 0 0 0 0 0 0 0 0 0 0 0 0 0 0 0 0 0
0 0 0 0 0 0 0 0 0 0 0 0 0 0 0 0 0 0 0 0 0 0 0 0 0 0 0 0 0 0 0 0 0 0 0 0 0 0 0 0 0 0 0
0 0 0 0 0 0 0 0 0 0 0 0 0 0 0 0 0 0 0 0 0 0 0 0 0 0 0 0 0 0 0 0 0 0 0 0 0 0 0 0 0 0 0
0 0 0 0 0 0 0 0 0 0 0 0 0 0 0 0 0 0 0 0 0 0 0 0 0 0 0 0 0 0 0 0 0 0 0 0 0 0 0 0 0 0 0
0 0 0 0 0 0 0 0 0 0 0 0 0 0 0 0 0 0 0 0 0 0 0 0 0 0 0 0 0 0 0 0 0 0 0 0 0 0 0 0 0 0 0
0 0 0 0 0 0 0 0 0 0 0 0 0 0 0 0 0 0 0 0 0 0 0 0 0 0 0 0 0 0 0 0 0 0 0 0 0 0 0 0 0 0 0
Wind_Speed
1 1 1 1 1 2 3 3 3 3 3 3 3 3 3 3 3 3 3 3 4 3 3 4 5 3 3 3 3 3 4 4 7 6 3 3 4 4 4 4 4 4 5
1 1 1 1 1 2 3 3 3 3 3 3 3 3 3 3 3 3 4 3 4 4 4 4 5 3 4 3 3 4 4 5 5 7 5 3 4 4 4 5 5 4 4
1 1 1 1 2 2 3 3 3 3 3 3 3 4 4 4 4 4 4 4 4 4 4 5 5 4 5 4 4 5 4 4 4 5 6 4 4 3 4 4 5 4 4
1 1 2 2 2 3 2 2 2 3 3 3 3 4 4 4 4 4 4 4 4 4 4 5 5 5 6 5 5 5 4 4 4 5 5 4 4 3 3 4 4 3 4
1 1 2 2 2 2 2 2 2 2 3 3 3 3 4 4 4 4 4 4 4 4 5 5 6 7 7 6 5 4 4 4 4 5 5 4 4 3 4 3 4 4 4
1 2 2 1 1 2 2 2 2 2 2 3 4 4 4 4 6 7 5 4 5 5 5 5 6 6 8 9 9 8 7 6 6 5 5 6 6 5 4 3 3 3 4
1 2 1 1 1 2 2 1 2 2 2 2 3 3 4 5 7 7 7 4 5 5 6 5 5 5 6 5 7 9 9 10 9 7 7 8 6 5 4 4 4 5 5
1 2 2 1 2 1 1 2 2 2 2 2 3 3 4 5 7 7 6 5 5 5 6 6 6 6 5 5 5 6 7 8 8 7 8 7 6 5 5 5 5 5 5
2 2 2 2 2 2 2 3 2 2 2 3 3 3 4 5 7 7 5 3 4 5 5 5 5 6 8 7 6 7 7 7 8 9 9 9 9 9 5 3 3 3 4
3 3 3 2 2 3 3 2 2 2 3 2 3 3 4 5 6 6 5 2 4 4 4 4 6 7 8 8 6 6 8 7 4 4 6 8 7 7 8 6 5 5 4
3 3 3 2 3 2 2 2 2 2 2 2 3 3 3 4 6 6 5 3 4 4 4 4 4 8 9 8 7 5 7 6 4 4 4 4 3 3 3 3 4 5 5
3 3 3 3 2 1 2 2 2 2 2 2 3 4 3 3 4 6 6 6 5 4 4 4 4 7 8 8 6 6 7 5 3 3 3 3 3 3 3 3 4 4 5
3 3 3 2 2 1 2 2 1 1 2 2 3 4 4 3 4 7 7 8 7 5 4 6 7 7 6 5 6 5 3 2 2 3 4 4 3 3 2 2 2 2 3
3 3 2 2 2 2 2 2 2 2 2 3 3 4 4 4 3 3 4 4 5 5 4 4 6 6 4 3 3 3 1 1 2 3 3 2 1 1 1 1 2 2 2
3 3 2 2 2 2 2 3 3 3 4 4 4 4 4 5 6 7 5 4 3 3 2 2 1 2 2 2 2 1 1 1 2 2 2 2 1 1 1 1 1 1 2
3 3 2 2 2 2 3 4 5 5 7 8 7 6 5 7 9 9 8 8 6 4 1 1 2 2 3 2 2 2 2 2 2 2 2 2 2 2 2 1 1 1 2
3 3 3 3 3 3 3 3 4 5 6 7 8 8 8 9 9 9 8 7 5 2 1 1 2 2 2 2 2 2 2 2 2 2 2 2 2 2 1 1 1 1 2
3 4 3 3 3 3 3 3 3 4 5 5 6 9 9 9 8 7 6 3 2 1 1 2 2 2 3 2 2 2 2 2 2 2 2 2 2 2 2 2 2 2 2
3 3 3 3 3 3 3 3 3 4 4 5 4 5 7 7 7 6 4 1 2 2 2 2 2 3 3 2 2 2 2 2 2 2 2 2 2 2 2 2 2 2 2
3 4 4 3 3 3 3 3 4 4 4 4 5 4 3 2 2 2 2 2 2 3 3 3 3 3 3 2 2 2 2 2 2 2 2 2 2 2 2 2 2 2 2
3 4 4 3 3 4 4 4 4 4 5 5 5 5 6 3 3 4 3 3 3 3 3 3 3 3 2 2 2 2 3 3 2 2 2 2 2 2 2 2 2 2 1
3 3 3 4 4 4 4 4 4 5 5 6 5 5 8 4 3 3 4 4 3 3 3 3 3 3 3 3 3 3 3 3 3 2 2 2 2 2 1 1 1 1 1
3 4 4 4 4 5 5 5 5 5 5 5 5 4 4 4 4 4 4 3 3 3 2 3 3 3 2 2 3 3 3 4 3 3 3 2 2 2 2 2 2 2 2
4 4 4 4 4 4 5 5 5 5 5 5 5 4 4 4 4 4 4 3 3 3 2 3 3 4 4 3 2 2 3 3 2 3 4 3 3 2 2 2 2 2 2
4 4 5 5 5 5 5 5 5 5 5 5 5 4 4 4 4 4 3 3 3 3 3 3 3 3 4 5 4 3 4 4 3 2 3 3 3 3 3 3 2 2 2
5 5 5 5 5 5 5 5 5 5 5 5 5 4 4 4 4 4 3 3 3 3 3 3 3 4 4 4 5 5 5 5 5 4 3 3 3 3 3 2 3 2 2
Wind_Direction
224 212 203 212 205 205 211 213 213 212 203 207 215 216 221 226 221 222 233 229 228 238 237 238 248 247 242 240 235 233 235 235 255 273 265 276 269 278 288 281 273 268 272
223 208 212 211 201 213 228 227 213 210 209 210 212 215 221 225 222 224 233 232 230 237 241 240 246 241 239 242 238 237 237 234 243 267 278 274 267 273 280 280 276 269 265
232 220 232 233 229 234 237 236 222 213 215 216 212 219 223 224 224 229 229 232 234 240 242 242 246 237 241 241 237 240 241 243 241 255 271 272 270 273 285 284 275 271 273
252 229 244 251 248 249 251 245 233 220 217 219 222 227 229 228 229 230 230 235 240 243 244 244 244 237 239 239 237 239 240 243 243 250 263 269 266 266 265 275 284 274 278
257 246 255 263 260 260 263 261 252 238 228 224 225 234 237 234 232 232 232 233 238 247 249 248 246 245 244 241 241 239 233 237 241 248 257 265 264 261 260 256 273 283 272
266 267 277 278 268 264 264 262 259 256 247 231 230 231 237 244 247 243 239 234 238 244 253 257 256 249 251 249 250 247 235 232 236 238 249 255 259 256 257 254 266 275 277
284 290 288 276 267 269 271 265 261 261 261 253 247 242 246 252 252 251 249 246 244 245 249 254 259 257 248 248 252 251 246 244 235 229 243 250 255 250 246 252 249 250 252
292 296 290 275 267 274 261 259 263 262 259 258 262 262 263 268 264 260 257 253 253 254 251 250 254 260 252 244 247 251 250 247 243 237 242 250 253 251 236 240 250 263 273
296 290 282 271 262 257 259 264 265 263 264 265 264 261 266 276 275 271 265 260 261 267 264 257 254 259 261 251 245 253 262 264 260 250 250 255 258 254 244 241 244 251 268
291 292 289 274 254 250 257 267 275 268 264 268 273 268 267 275 276 275 270 258 265 273 272 263 259 263 267 256 245 246 258 266 265 267 261 262 259 252 241 226 221 234 253
306 302 296 287 273 265 267 273 279 277 277 277 277 277 273 275 279 278 275 269 263 272 273 274 269 270 270 266 258 249 258 264 252 250 256 262 264 256 250 248 235 229 236
308 301 295 294 288 288 284 286 285 278 281 288 292 295 290 288 289 286 282 278 280 270 273 279 280 282 280 280 276 278 275 268 255 251 255 258 258 260 260 254 251 248 243
310 299 294 300 301 296 276 279 290 281 273 283 284 288 297 298 292 293 290 286 281 275 274 278 283 285 286 284 289 294 283 265 256 259 261 261 259 255 248 258 262 260 262
297 299 301 300 306 304 287 270 264 261 264 271 275 280 289 294 290 293 291 286 281 279 282 282 280 283 287 296 298 291 283 264 258 263 273 277 284 281 261 260 260 271 281
293 300 304 294 291 291 282 264 263 257 256 265 262 263 272 278 281 288 291 281 274 273 296 302 310 314 302 305 307 299 288 279 272 277 276 282 281 278 277 282 278 273 254
291 295 290 289 286 284 289 295 284 285 288 283 284 284 278 284 293 285 285 285 281 281 286 279 279 276 272 277 280 286 279 273 276 275 272 266 268 272 283 295 281 254 274
273 283 284 281 278 278 279 283 295 298 289 288 291 292 293 296 295 292 291 289 280 259 251 265 265 270 278 280 278 277 277 275 268 261 263 267 267 265 265 269 269 272 275
274 275 273 271 271 269 270 273 277 286 297 296 293 292 296 296 296 297 293 283 276 277 258 259 262 266 268 271 272 276 278 280 273 266 262 262 258 254 255 259 258 265 270
272 273 271 271 269 267 268 269 269 272 277 288 301 297 296 298 294 295 296 253 249 259 261 260 259 262 265 264 267 269 266 261 259 260 253 249 247 246 254 260 265 271 268
270 272 275 272 273 270 266 266 268 271 276 278 278 285 298 293 277 271 255 251 249 254 255 252 255 258 262 260 261 262 268 267 258 255 255 252 248 240 243 248 248 252 261
269 271 267 267 264 264 263 262 264 264 267 272 274 276 281 265 254 251 248 244 242 246 249 246 247 248 251 256 255 254 254 261 251 243 243 243 237 239 240 239 243 248 257
264 265 261 258 262 263 264 263 263 264 265 270 278 277 275 269 257 253 248 247 244 240 236 235 241 241 237 235 236 241 248 254 253 243 235 231 226 227 226 226 231 240 242
263 265 266 263 260 263 266 263 261 263 266 267 270 269 266 256 253 253 253 249 245 245 241 236 242 250 251 246 237 232 236 242 240 231 225 225 221 217 212 219 222 228 236
264 262 263 265 263 261 263 266 264 264 265 267 267 263 264 259 254 255 253 251 246 245 243 242 245 249 254 260 257 251 250 247 233 221 208 206 209 210 212 219 226 228 233
263 260 259 258 259 261 264 266 266 266 266 266 265 263 264 262 257 257 255 250 245 247 249 250 252 250 251 254 259 259 258 257 248 220 201 197 197 201 206 213 218 219 223
267 262 259 258 256 256 257 261 264 264 265 266 264 260 259 260 258 256 253 248 250 253 254 252 251 252 255 255 255 256 257 255 245 217 194 188 188 199 198 208 211 214 214